Location: Isola Pescaroli
(45.0500°N, 10.1667°E)
Time: 01:54:51
(UTC+00:00)

SL-4 R/B - Pass Details

Date: 20 June 2021
Orbit: 428 x 662 km, 51.6° (Epoch: 29 July)

Event Time Altitude Azimuth Distance (km) Brightness Sun altitude
Rises 01:20:49 0° 292° (WNW) 2,580 5.4 -16.3°
Reaches altitude 10° 01:23:15 10° 304° (NW) 1,656 4.5 -16.1°
Maximum altitude 01:26:33 30° 7° (N) 861 3.7 -15.8°
Drops below altitude 10° 01:29:42 10° 70° (ENE) 1,568 5.1 -15.5°
Sets 01:31:56 0° 82° (E) 2,415 5.9 -15.3°
